This is the latest recevied weather packets stored in our database for station/object IZ1GCT. If no packets are shown the sender has not sent any weather packets the latest 10 day(s).
| Time | Temp. | Humidity | Pressure | Rain* | Wind** | Luminosity | Snow |
|---|---|---|---|---|---|---|---|
| 1777654242 | 19.44° C | 41% | 1027.4 hPa | 0 mm | - | - | - |
| 1777653943 | 19.44° C | 40% | 1027.3 hPa | 0 mm | - | - | - |
| 1777653643 | 19.44° C | 41% | 1027.4 hPa | 0 mm | - | - | - |
| 1777653342 | 18.89° C | 40% | 1027.4 hPa | 0 mm | - | - | - |
| 1777653042 | 19.44° C | 40% | 1027.5 hPa | 0 mm | - | - | - |
| 1777652742 | 19.44° C | 40% | 1027.6 hPa | 0 mm | - | - | - |
| 1777652443 | 20° C | 40% | 1027.6 hPa | 0 mm | - | - | - |
| 1777652143 | 20° C | 40% | 1027.6 hPa | 0 mm | - | - | - |
| 1777651842 | 19.44° C | 40% | 1027.6 hPa | 0 mm | - | - | - |
| 1777651544 | 19.44° C | 40% | 1027.5 hPa | 0 mm | - | - | - |
| 1777650937 | 19.44° C | 38% | 1027.6 hPa | 0 mm | - | - | - |
| 1777650638 | 20° C | 39% | 1027.6 hPa | 0 mm | - | - | - |
| 1777650338 | 20° C | 40% | 1027.7 hPa | 0 mm | - | - | - |
| 1777650037 | 20° C | 39% | 1027.7 hPa | 0 mm | - | - | - |
| 1777649738 | 20° C | 40% | 1027.7 hPa | 0 mm | - | - | - |
| 1777649438 | 20.56° C | 39% | 1027.8 hPa | 0 mm | - | - | - |
| 1777649137 | 20° C | 39% | 1027.8 hPa | 0 mm | - | - | - |
| 1777648837 | 20.56° C | 38% | 1027.8 hPa | 0 mm | - | - | - |
| 1777648538 | 20.56° C | 39% | 1027.8 hPa | 0 mm | - | - | - |
| 1777648237 | 20.56° C | 39% | 1027.8 hPa | 0 mm | - | - | - |
| 1777647937 | 20.56° C | 38% | 1027.9 hPa | 0 mm | - | - | - |
| 1777647638 | 20° C | 40% | 1027.9 hPa | 0 mm | - | - | - |
| 1777647338 | 20° C | 40% | 1028.1 hPa | 0 mm | - | - | - |
| 1777647037 | 20° C | 36% | 1028.2 hPa | 0 mm | - | - | - |
| 1777646738 | 20.56° C | 35% | 1028.2 hPa | 0 mm | - | - | - |
* Rain latest hour (hover to see other rain measurements)
** Current wind speed in m/s (hover to see current wind gust speed)